When you browse on this site, cookies collect data to enhance your experience and personalize the content and advertising you see.
Visit our Privacy Policy to learn more. By continuing to use the site, you agree to this use of cookies and data.
  • In Hungary
  • List of Countries
  • For 7 days
  • Water Temperature
  • Satellite Maps
  • Weather Map
  • News
  • Weather Widgets
  • user-avatar
    Login

    Hourly Weather Eugene

    Today, 20 February, Wednesday

    Time Temperature Precipitation Wind Pressure Humidity
    00:00 +4°C° 0.5 mm 2 mps 748 mmHg 96%
    01:00 +4°C° 0.5 mm 2 mps 748 mmHg 96%
    02:00 +3°C° 0.3 mm 2 mps 748 mmHg 96%
    03:00 +3°C° 0.3 mm 2 mps 747 mmHg 96%
    04:00 +3°C° 0 mm 2 mps 748 mmHg 96%
    05:00 +2°C° 0.2 mm 2 mps 748 mmHg 96%
    06:00 +3°C° 0.2 mm 1 mps 748 mmHg 96%
    07:00 +3°C° 0.2 mm 1 mps 748 mmHg 96%
    08:00 +4°C° 0.5 mm 1 mps 747 mmHg 94%
    09:00 +5°C° 0.5 mm 1 mps 747 mmHg 91%
    10:00 +5°C° 0.5 mm 2 mps 747 mmHg 89%
    11:00 +7°C° 0.6 mm 1 mps 746 mmHg 88%
    12:00 +7°C° 0.6 mm 1 mps 746 mmHg 87%
    13:00 +7°C° 0.6 mm 1 mps 745 mmHg 87%
    14:00 +7°C° 0.6 mm 1 mps 745 mmHg 88%
    15:00 +7°C° 0.6 mm 1 mps 745 mmHg 89%
    16:00 +6°C° 0.6 mm 1 mps 744 mmHg 90%
    17:00 +6°C° 0.4 mm 1 mps 745 mmHg 91%
    18:00 +4°C° 0.4 mm 0 mps 745 mmHg 92%
    19:00 +3°C° 0.4 mm 0 mps 745 mmHg 93%
    20:00 +2°C° 0 mm 0 mps 745 mmHg 93%
    21:00 +1°C° 0 mm 0 mps 746 mmHg 94%
    22:00 0°C° 0 mm 0 mps 746 mmHg 95%
    23:00 -1°C° 0 mm 0 mps 747 mmHg 95%

    Tomorrow, 21 February, Thursday

    Time Temperature Precipitation Wind Pressure Humidity
    00:00 0°C° 0 mm 1 mps 748 mmHg 95%
    01:00 -1°C° 0 mm 1 mps 748 mmHg 96%
    02:00 -1°C° 0 mm 1 mps 749 mmHg 96%
    03:00 -1°C° 0 mm 1 mps 749 mmHg 96%
    04:00 -2°C° 0 mm 1 mps 750 mmHg 96%
    05:00 -2°C° 0 mm 1 mps 750 mmHg 96%
    06:00 -2°C° 0 mm 1 mps 751 mmHg 95%
    07:00 -3°C° 0 mm 1 mps 751 mmHg 95%
    08:00 -1°C° 0 mm 1 mps 752 mmHg 90%
    09:00 +1°C° 0 mm 1 mps 752 mmHg 85%
    10:00 +3°C° 0 mm 1 mps 752 mmHg 80%
    11:00 +4°C° 0 mm 1 mps 752 mmHg 74%
    12:00 +6°C° 0 mm 1 mps 752 mmHg 69%
    13:00 +6°C° 0 mm 2 mps 752 mmHg 63%
    14:00 +6°C° 0 mm 2 mps 752 mmHg 65%
    15:00 +7°C° 0 mm 2 mps 752 mmHg 66%
    16:00 +7°C° 0 mm 2 mps 751 mmHg 68%
    17:00 +5°C° 0 mm 1 mps 752 mmHg 76%
    18:00 +3°C° 0 mm 1 mps 752 mmHg 83%
    19:00 0°C° 0 mm 0 mps 753 mmHg 91%
    20:00 0°C° 0 mm 0 mps 753 mmHg 92%
    21:00 -1°C° 0 mm 0 mps 753 mmHg 92%
    22:00 -1°C° 0 mm 0 mps 754 mmHg 93%
    23:00 0°C° 0 mm 1 mps 754 mmHg 93%

    Day after tomorrow, 22 February, Friday

    Time Temperature Precipitation Wind Pressure Humidity
    00:00 -1°C° 0 mm 1 mps 754 mmHg 93%
    01:00 -1°C° 0 mm 1 mps 754 mmHg 93%
    02:00 -1°C° 0 mm 1 mps 753 mmHg 92%
    03:00 -1°C° 0 mm 1 mps 753 mmHg 91%
    04:00 -1°C° 0 mm 1 mps 753 mmHg 89%
    05:00 -1°C° 0 mm 1 mps 753 mmHg 88%
    06:00 -1°C° 0 mm 1 mps 753 mmHg 87%
    07:00 -1°C° 0 mm 1 mps 753 mmHg 86%
    08:00 +1°C° 0 mm 1 mps 753 mmHg 79%
    09:00 +3°C° 0 mm 2 mps 753 mmHg 72%
    10:00 +5°C° 0 mm 2 mps 753 mmHg 65%
    11:00 +6°C° 0 mm 2 mps 753 mmHg 64%
    12:00 +7°C° 0 mm 2 mps 752 mmHg 63%
    13:00 +8°C° 0 mm 2 mps 752 mmHg 61%
    14:00 +8°C° 0.2 mm 2 mps 752 mmHg 70%
    15:00 +7°C° 0.2 mm 2 mps 752 mmHg 79%
    16:00 +6°C° 0.2 mm 2 mps 751 mmHg 88%
    17:00 +6°C° 1.2 mm 2 mps 752 mmHg 91%
    18:00 +5°C° 1.2 mm 2 mps 752 mmHg 94%
    19:00 +5°C° 1.2 mm 2 mps 752 mmHg 96%
    20:00 +6°C° 0.6 mm 1 mps 753 mmHg 97%
    21:00 +6°C° 0.6 mm 1 mps 753 mmHg 97%
    22:00 +6°C° 0.6 mm 1 mps 753 mmHg 97%
    23:00 +5°C° 0.1 mm 1 mps 753 mmHg 96%

    23 February, Saturday

    Time Temperature Precipitation Wind Pressure Humidity
    00:00 +5°C° 0.1 mm 1 mps 754 mmHg 96%
    01:00 +5°C° 0.1 mm 1 mps 754 mmHg 95%
    02:00 +5°C° 0.1 mm 1 mps 754 mmHg 95%
    03:00 +5°C° 0.1 mm 1 mps 754 mmHg 95%
    04:00 +5°C° 0.1 mm 1 mps 754 mmHg 94%
    05:00 +5°C° 0.1 mm 1 mps 754 mmHg 95%
    06:00 +4°C° 0.1 mm 1 mps 755 mmHg 95%
    07:00 +4°C° 0.1 mm 1 mps 755 mmHg 95%
    08:00 +5°C° 0.1 mm 1 mps 755 mmHg 92%
    09:00 +5°C° 0.1 mm 2 mps 755 mmHg 90%
    10:00 +6°C° 0.1 mm 2 mps 755 mmHg 87%
    11:00 +7°C° 0.2 mm 2 mps 755 mmHg 85%
    12:00 +7°C° 0.2 mm 2 mps 755 mmHg 83%
    13:00 +7°C° 0.2 mm 3 mps 755 mmHg 80%
    14:00 +8°C° 0.1 mm 3 mps 755 mmHg 79%
    15:00 +8°C° 0.1 mm 2 mps 755 mmHg 77%
    16:00 +8°C° 0.1 mm 2 mps 754 mmHg 75%
    17:00 +6°C° 0 mm 2 mps 754 mmHg 81%
    18:00 +5°C° 0 mm 2 mps 754 mmHg 87%
    19:00 +4°C° 0 mm 1 mps 754 mmHg 92%
    20:00 +4°C° 0.3 mm 1 mps 754 mmHg 93%
    21:00 +4°C° 0.3 mm 1 mps 754 mmHg 94%
    22:00 +5°C° 0.3 mm 1 mps 754 mmHg 95%
    23:00 +5°C° 0.8 mm 1 mps 754 mmHg 96%

    24 February, Sunday

    Time Temperature Precipitation Wind Pressure Humidity
    00:00 +5°C° 0.8 mm 1 mps 754 mmHg 96%
    01:00 +5°C° 0.8 mm 1 mps 753 mmHg 96%
    02:00 +5°C° 1 mm 1 mps 753 mmHg 96%
    03:00 +4°C° 1 mm 2 mps 752 mmHg 96%
    04:00 +4°C° 1 mm 2 mps 752 mmHg 96%
    05:00 +5°C° 1.1 mm 2 mps 751 mmHg 97%
    06:00 +5°C° 1.1 mm 2 mps 751 mmHg 97%
    07:00 +5°C° 1.1 mm 2 mps 751 mmHg 97%
    08:00 +6°C° 0.5 mm 2 mps 750 mmHg 96%
    09:00 +5°C° 0.5 mm 3 mps 750 mmHg 95%
    10:00 +7°C° 0.5 mm 3 mps 749 mmHg 94%
    11:00 +7°C° 0.7 mm 3 mps 749 mmHg 94%
    12:00 +7°C° 0.7 mm 3 mps 748 mmHg 94%
    13:00 +7°C° 0.7 mm 2 mps 748 mmHg 94%
    14:00 +6°C° 1.9 mm 2 mps 747 mmHg 95%
    15:00 +6°C° 1.9 mm 2 mps 746 mmHg 96%
    16:00 +6°C° 1.9 mm 2 mps 746 mmHg 97%
    17:00 +6°C° 3.2 mm 2 mps 746 mmHg 97%
    18:00 +6°C° 3.2 mm 2 mps 745 mmHg 97%
    19:00 +6°C° 3.2 mm 2 mps 745 mmHg 98%
    20:00 +6°C° 2.7 mm 2 mps 745 mmHg 97%
    21:00 +7°C° 2.7 mm 1 mps 744 mmHg 97%
    22:00 +7°C° 2.7 mm 1 mps 744 mmHg 97%
    23:00 +6°C° 3.1 mm 1 mps 743 mmHg 97%

    25 February, Monday

    Time Temperature Precipitation Wind Pressure Humidity
    00:00 +6°C° 3.1 mm 1 mps 742 mmHg 97%
    01:00 +6°C° 3.1 mm 1 mps 741 mmHg 98%
    02:00 +6°C° 3 mm 1 mps 741 mmHg 97%
    03:00 +6°C° 3 mm 1 mps 740 mmHg 97%
    04:00 +6°C° 3 mm 1 mps 740 mmHg 97%
    05:00 +6°C° 3 mm 1 mps 740 mmHg 97%
    06:00 +6°C° 3 mm 1 mps 739 mmHg 97%
    07:00 +6°C° 3 mm 1 mps 739 mmHg 97%
    08:00 +6°C° 2.3 mm 1 mps 740 mmHg 97%
    09:00 +6°C° 2.3 mm 1 mps 740 mmHg 97%
    10:00 +6°C° 2.3 mm 1 mps 741 mmHg 97%
    11:00 +6°C° 0.4 mm 1 mps 741 mmHg 95%
    12:00 +7°C° 0.4 mm 1 mps 742 mmHg 92%
    13:00 +7°C° 0.4 mm 0 mps 743 mmHg 90%
    14:00 +7°C° 0.1 mm 0 mps 743 mmHg 88%
    15:00 +7°C° 0.1 mm 0 mps 744 mmHg 87%
    16:00 +7°C° 0.1 mm 0 mps 744 mmHg 86%
    17:00 +6°C° 0.1 mm 0 mps 745 mmHg 88%
    18:00 +6°C° 0.1 mm 1 mps 746 mmHg 90%
    19:00 +5°C° 0.1 mm 1 mps 746 mmHg 92%
    20:00 +5°C° 0 mm 1 mps 747 mmHg 92%
    21:00 +5°C° 0 mm 1 mps 747 mmHg 92%
    22:00 +5°C° 0 mm 1 mps 748 mmHg 93%
    23:00 +4°C° 0 mm 1 mps 748 mmHg 93%
    Show more